[[{"header":{"parameterUnit":"m.s-1","parameterCategory":1,"la1":30.2991,"la2":30.254,"lo1":-89.0895,"lo2":-89.0444,"dy":0.0017,"dx":0.0017,"nx":28,"ny":28,"refTime":"2026-02-04T09:00:00:Z","depth":0,"parameterNumber":2,"parameterNumberName":"U-component_of_WINDS"},"data":[0,0,0,0,0,0,0,0,0,0,0,0,0,0,0,0,0,0,0,0,0,0,0,0,0,0,0,0,0,0,0,0,0,0,0,0,0,0,0,0,0,0,0,0,0,0,0,0,0,0,0,0,0,0,0,0,0,0,2.7967,2.7967,0,2.794,2.794,2.7939,2.7884,2.7883,2.7882,2.7881,2.7852,2.7852,2.7853,0,0,0,0,0,0,0,0,0,0,0,0,0,2.7971,2.7972,2.7967,2.7967,2.7966,2.794,2.794,2.7939,2.7884,2.7883,2.7882,2.788,2.7852,2.7852,2.7853,0,0,0,0,0,0,0,0,0,0,0,0,0,2.7959,2.7972,2.7967,2.7936,2.7933,2.794,2.794,2.7939,2.7885,2.7883,2.7881,2.788,2.7852,2.7852,2.7853,2.7888,0,0,2.7854,2.7854,0,0,0,0,0,0,0,0,2.796,2.7959,2.7941,2.7938,2.7935,2.7914,2.7931,2.7922,2.7885,2.7903,2.7881,2.7879,2.7874,2.7872,2.7871,2.7887,2.7885,2.7854,2.7854,2.7854,2.7854,0,0,0,0,0,0,0,2.7961,2.796,2.7956,2.7941,2.7937,2.7923,2.792,2.7929,2.7898,2.7901,2.7897,2.7895,2.7872,2.7871,2.787,2.7885,2.7854,2.7854,2.7854,2.7855,2.793,2.7931,0,0,0,0,0,0,2.7967,2.7961,2.7957,2.7955,2.7944,2.7924,2.792,2.7922,2.7898,2.7892,2.7896,2.7892,2.7871,2.7869,2.7869,2.7909,2.7854,2.7855,2.7855,2.7928,2.793,2.7932,0,0,0,0,0,0,2.7967,2.7967,2.7958,2.7957,2.7955,2.7926,2.7928,2.7922,2.7921,2.7894,2.7888,2.79,2.7869,2.7868,2.7884,2.7907,2.7855,2.7855,2.7926,2.7929,2.7931,2.7989,0,0,0,0,0,0,2.7967,2.7967,2.798,2.7958,2.7955,2.7974,2.793,2.7923,2.7922,2.7917,2.7896,2.7891,2.7868,2.7884,2.7884,2.7907,2.7855,2.7924,2.7927,2.793,2.7985,2.7994,2.8001,0,0,0,0,0,2.7968,2.7997,2.7981,2.7981,2.7971,2.7976,2.7974,2.7947,2.7924,2.7937,2.792,2.7892,2.7905,2.7886,2.7886,2.7909,2.7922,2.7926,2.793,2.7982,2.7992,2.8001,0,0,0,0,0,0,2.8022,2.7993,2.7975,2.7999,2.799,2.7966,2.7981,2.7958,2.7956,2.7951,2.7917,2.7913,2.7933,2.7923,2.7902,2.7942,2.7909,2.7913,2.7948,2.7958,2.7966,2.7967,2.7856,0,0,0,0,0,2.8036,2.8043,2.8018,2.8041,2.8037,2.8011,2.8011,2.7991,2.7981,2.7977,2.7961,2.7951,2.7953,2.7955,2.7955,2.7984,2.7979,2.8,2.8008,2.8014,2.8018,2.8033,2.8042,2.7945,2.7945,2.7945,0,0,2.8067,2.8052,2.8058,2.8051,2.8042,2.8049,2.8008,2.8017,2.8022,2.7978,2.7992,2.798,2.7968,2.7991,2.8,2.7982,2.8044,2.8019,2.8025,2.8025,2.8038,2.8048,2.8056,2.7948,2.7947,2.7947,0,0,2.8125,2.8115,2.8133,2.8126,2.8113,2.8095,2.81,2.808,2.8071,2.8085,2.8052,2.8058,2.8062,2.8055,2.8051,2.811,2.8085,2.8111,2.8152,2.8167,2.8175,2.8181,2.8202,2.821,2.8115,2.8116,2.8116,0,2.8164,2.8174,2.8145,2.8157,2.8155,2.8117,2.8136,2.813,2.8118,2.8118,2.8099,2.8104,2.8093,2.8113,2.8128,2.8127,2.8131,2.8113,2.8176,2.8182,2.8188,2.8208,2.8216,2.8119,2.8118,2.8118,2.8118,0,2.8223,2.823,2.8246,2.8237,2.8237,2.8252,2.8226,2.823,2.8211,2.8195,2.8211,2.8197,2.8194,2.8197,2.8178,2.8216,2.8206,2.8182,2.8148,2.8201,2.8219,2.8226,2.8124,2.8122,2.8121,2.8121,0,0,2.8312,2.8289,2.8295,2.8291,2.8275,2.828,2.8294,2.8292,2.8296,2.829,2.8301,2.8306,2.8284,2.8281,2.8261,2.8275,2.8322,2.8249,2.8248,2.8263,2.8364,2.8381,2.8391,2.8306,2.8307,2.8309,2.8365,0,2.8367,2.8389,2.8365,2.8393,2.84,2.8365,2.8377,2.8369,2.8356,2.836,2.8345,2.8349,2.832,2.8318,2.833,2.8314,2.8342,2.831,2.8316,2.8316,2.8319,2.84,2.8418,2.8472,2.8372,2.8373,2.8374,0,2.8433,2.8431,2.8459,2.8443,2.8445,2.8457,2.8453,2.8458,2.8449,2.8438,2.8435,2.8412,2.8425,2.8393,2.841,2.8389,2.839,2.8383,2.8385,2.8383,2.8348,2.84,2.8488,2.8496,2.8384,2.8384,2.8383,0,2.8496,2.85,2.8518,2.8515,2.8497,2.8506,2.8499,2.8488,2.8488,2.8486,2.8486,2.8485,2.8485,2.8485,2.8462,2.844,2.8483,2.8448,2.8474,2.8475,2.8483,2.8483,2.8572,2.8486,2.8486,2.8485,2.8485,0,2.8559,2.8577,2.8546,2.8557,2.8577,2.855,2.8571,2.856,2.8551,2.8559,2.8529,2.8538,2.8507,2.8513,2.8495,2.8513,2.8513,2.8505,2.8499,2.8507,2.8508,2.8506,2.8502,2.8487,2.8487,2.8487,2.8486,0,2.8631,2.8611,2.8628,2.861,2.8606,2.8622,2.8606,2.8616,2.8601,2.8613,2.8614,2.8591,2.8596,2.8574,2.8574,2.8563,2.8589,2.8578,2.8592,2.8589,2.8616,2.8613,2.8706,2.8717,2.8625,2.8626,2.8626,0,2.8672,2.8686,2.867,2.8674,2.8669,2.8675,2.8676,2.8651,2.8653,2.8645,2.8655,2.8658,2.8659,2.8669,2.8652,2.8653,2.8642,2.8674,2.8641,2.8649,2.8642,2.8641,2.8642,2.8681,2.8682,2.8683,2.8684,0,2.8748,2.8737,2.874,2.874,2.8743,2.8741,2.8738,2.8743,2.8715,2.8719,2.8725,2.8726,2.8728,2.8731,2.8729,2.8721,2.8698,2.8695,2.87,2.8707,2.8715,2.8711,2.861,2.8692,2.8691,2.869,2.869,2.869,2.8805,2.8816,2.8807,2.8812,2.8807,2.8805,2.8813,2.8801,2.8805,2.8804,2.8789,2.8798,2.879,2.8785,2.878,2.8786,2.8771,2.8779,2.8781,2.8784,2.8789,2.8715,2.8786,2.8786,2.8785,2.8785,2.8785,0,2.8879,2.8872,2.8876,2.8873,2.8877,2.8856,2.8852,2.8856,2.8864,2.8859,2.8861,2.8867,2.8871,2.8856,2.8857,2.8866,2.8855,2.8867,2.8866,2.8864,2.8802,2.8797,2.8875,2.8875,2.8875,2.8875,2.8875,2.8875,2.8917,2.8935,2.8924,2.8939,2.8932,2.894,2.894,2.8938,2.8934,2.8943,2.8946,2.8936,2.8927,2.8928,2.8931,2.8926,2.8928,2.8944,2.8935,2.8877,2.8869,2.886,2.8855,2.8944,2.8945,2.8997,2.8997,2.8998]},{"header":{"parameterUnit":"m.s-1","parameterCategory":1,"la1":30.2991,"la2":30.254,"lo1":-89.0895,"lo2":-89.0444,"dy":0.0017,"dx":0.0017,"nx":28,"ny":28,"refTime":"2026-02-04T09:00:00:Z","depth":0,"parameterNumber":3,"parameterNumberName":"V-component_of_WINDS"},"data":[0,0,0,0,0,0,0,0,0,0,0,0,0,0,0,0,0,0,0,0,0,0,0,0,0,0,0,0,0,0,0,0,0,0,0,0,0,0,0,0,0,0,0,0,0,0,0,0,0,0,0,0,0,0,0,0,0,0,-7.9421,-7.9423,0,-7.9601,-7.9603,-7.9605,-7.9541,-7.9536,-7.9532,-7.9529,-7.9705,-7.9713,-7.9722,0,0,0,0,0,0,0,0,0,0,0,0,0,-7.9016,-7.9023,-7.9421,-7.9423,-7.9426,-7.9601,-7.9603,-7.9606,-7.9541,-7.9536,-7.9531,-7.9527,-7.9702,-7.9712,-7.9722,0,0,0,0,0,0,0,0,0,0,0,0,0,-7.9193,-7.9026,-7.9421,-7.9415,-7.9416,-7.96,-7.9603,-7.9606,-7.9542,-7.9536,-7.953,-7.9525,-7.9699,-7.9711,-7.9724,-7.9922,0,0,-7.9763,-7.9768,0,0,0,0,0,0,0,0,-7.9183,-7.9208,-7.9413,-7.9415,-7.9417,-7.9542,-7.9525,-7.9712,-7.9544,-7.9494,-7.9529,-7.9522,-7.9655,-7.9671,-7.9718,-7.9931,-7.9938,-7.9764,-7.9771,-7.9777,-7.978,0,0,0,0,0,0,0,-7.9171,-7.92,-7.9492,-7.9416,-7.9419,-7.9401,-7.942,-7.956,-7.9606,-7.9498,-7.9494,-7.9516,-7.9655,-7.9706,-7.9722,-7.9941,-7.9763,-7.9775,-7.9782,-7.9787,-8.0326,-8.0333,0,0,0,0,0,0,-7.9159,-7.919,-7.9486,-7.9497,-7.9283,-7.9413,-7.9434,-7.9508,-7.9604,-7.9613,-7.9521,-7.9513,-7.9687,-7.9707,-7.9727,-7.9968,-7.9777,-7.9789,-7.9796,-8.032,-8.0328,-8.0335,0,0,0,0,0,0,-7.915,-7.9186,-7.9479,-7.9343,-7.9379,-7.9427,-7.951,-7.9515,-7.9566,-7.9622,-7.9629,-7.9565,-7.9683,-7.971,-7.9875,-7.9973,-7.9794,-7.9806,-8.0312,-8.0322,-8.0332,-8.0448,0,0,0,0,0,0,-7.9139,-7.9183,-7.926,-7.9345,-7.9386,-7.9626,-7.9516,-7.9523,-7.9588,-7.9579,-7.9665,-7.9673,-7.9681,-7.9857,-7.9888,-7.9987,-7.9816,-8.0303,-8.0316,-8.0328,-8.0436,-8.0461,-8.0483,0,0,0,0,0,-7.9125,-7.9284,-7.9265,-7.9301,-7.9484,-7.9632,-7.9655,-7.9662,-7.9597,-7.9674,-7.971,-7.9671,-7.9957,-7.9874,-7.9909,-8.0013,-8.0297,-8.0313,-8.0327,-8.0425,-8.0456,-8.0482,0,0,0,0,0,0,-7.9206,-7.9295,-7.9274,-7.9466,-7.9543,-7.9621,-7.9718,-7.9694,-7.9788,-7.9775,-7.9778,-7.9798,-7.9969,-8.0007,-7.9913,-8.0211,-8.0117,-8.014,-8.018,-8.0209,-8.0232,-8.0219,-7.9826,0,0,0,0,0,-7.9247,-7.9361,-7.9432,-7.9594,-7.9634,-7.967,-7.9734,-7.9734,-7.9811,-7.9842,-7.9891,-7.9966,-8.0073,-8.0143,-8.0244,-8.0441,-8.0459,-8.053,-8.0553,-8.0572,-8.0592,-8.07,-8.0732,-8.0385,-8.0385,-8.0384,0,0,-7.9331,-7.9394,-7.9465,-7.9612,-7.9671,-7.9788,-7.9697,-7.9824,-7.9911,-7.9861,-8.0021,-8.006,-8.0143,-8.0326,-8.0409,-8.0363,-8.0692,-8.0591,-8.0606,-8.0615,-8.0719,-8.0752,-8.0781,-8.0395,-8.0393,-8.0392,0,0,-7.9545,-7.9604,-7.9747,-7.9809,-7.9901,-7.9924,-7.9958,-8.0041,-8.0066,-8.0228,-8.0193,-8.0295,-8.0478,-8.054,-8.0596,-8.0836,-8.0803,-8.0869,-8.0991,-8.1096,-8.1123,-8.1148,-8.1234,-8.1265,-8.0888,-8.0888,-8.0888,0,-7.9638,-7.9815,-7.9823,-7.9955,-8.002,-7.9983,-8.0128,-8.0186,-8.0305,-8.035,-8.0298,-8.053,-8.0584,-8.0781,-8.084,-8.0886,-8.0924,-8.0859,-8.1119,-8.1144,-8.1166,-8.1249,-8.1281,-8.0896,-8.0895,-8.0894,-8.0893,0,-7.9925,-8.0049,-8.0153,-8.0273,-8.035,-8.0487,-8.0514,-8.059,-8.0583,-8.0612,-8.0777,-8.0841,-8.0955,-8.1001,-8.0994,-8.1199,-8.1168,-8.1118,-8.1024,-8.1207,-8.1285,-8.1316,-8.0906,-8.0904,-8.0901,-8.09,0,0,-8.0195,-8.0319,-8.0357,-8.0412,-8.0511,-8.0606,-8.0741,-8.0856,-8.0922,-8.1005,-8.1119,-8.1276,-8.1232,-8.1295,-8.1294,-8.1387,-8.1574,-8.1325,-8.1327,-8.137,-8.1804,-8.1842,-8.1878,-8.1553,-8.1559,-8.1564,-8.1797,0,-8.0418,-8.0659,-8.067,-8.0888,-8.1002,-8.097,-8.1088,-8.1161,-8.1191,-8.1291,-8.1323,-8.1436,-8.1367,-8.1405,-8.1496,-8.1532,-8.1661,-8.1516,-8.1657,-8.1662,-8.1638,-8.1919,-8.1959,-8.2176,-8.1828,-8.1833,-8.1836,0,-8.071,-8.0807,-8.1037,-8.1123,-8.1171,-8.1277,-8.1384,-8.148,-8.1562,-8.1577,-8.165,-8.1637,-8.1773,-8.1675,-8.1863,-8.1764,-8.1822,-8.1849,-8.1858,-8.1871,-8.1761,-8.1941,-8.2245,-8.2278,-8.1884,-8.188,-8.1877,0,-8.0885,-8.1072,-8.1235,-8.1282,-8.1385,-8.1461,-8.1507,-8.1583,-8.1652,-8.1745,-8.179,-8.1896,-8.1954,-8.2036,-8.2051,-8.1978,-8.224,-8.2143,-8.2256,-8.2256,-8.2313,-8.2309,-8.2632,-8.235,-8.2349,-8.2349,-8.2348,0,-8.1133,-8.1276,-8.1316,-8.1416,-8.1574,-8.1585,-8.1741,-8.1781,-8.185,-8.1956,-8.1933,-8.2033,-8.2047,-8.2149,-8.2162,-8.2316,-8.2342,-8.2358,-8.2359,-8.2361,-8.2359,-8.2399,-8.2385,-8.2357,-8.2356,-8.2354,-8.2352,0,-8.1355,-8.1388,-8.1563,-8.1648,-8.1672,-8.1786,-8.1857,-8.1952,-8.1981,-8.2115,-8.2147,-8.2192,-8.2312,-8.2335,-8.2476,-8.2484,-8.2669,-8.2655,-8.2642,-8.2641,-8.2754,-8.2743,-8.3114,-8.3164,-8.2848,-8.2851,-8.2854,0,-8.1512,-8.1622,-8.1719,-8.179,-8.1841,-8.1955,-8.2027,-8.2042,-8.2117,-8.2219,-8.2302,-8.2421,-8.2516,-8.2709,-8.2752,-8.2859,-8.2848,-8.2971,-8.2864,-8.2862,-8.2851,-8.2845,-8.2856,-8.2991,-8.2995,-8.2997,-8.3,0,-8.1787,-8.1799,-8.1904,-8.2017,-8.2103,-8.2191,-8.2275,-8.2334,-8.2359,-8.2445,-8.2569,-8.2644,-8.2789,-8.2907,-8.3015,-8.3059,-8.3035,-8.3033,-8.3065,-8.3068,-8.3057,-8.3066,-8.2699,-8.3025,-8.3022,-8.302,-8.3019,-8.3018,-8.1982,-8.2079,-8.2164,-8.2282,-8.2348,-8.2427,-8.2522,-8.2563,-8.2668,-8.2791,-8.2792,-8.2928,-8.3007,-8.315,-8.3202,-8.3307,-8.3268,-8.3314,-8.3326,-8.3338,-8.3349,-8.304,-8.3327,-8.3326,-8.3325,-8.3325,-8.3324,0,-8.2257,-8.2311,-8.242,-8.254,-8.2633,-8.2605,-8.2696,-8.2775,-8.2896,-8.2974,-8.307,-8.3213,-8.3327,-8.338,-8.3493,-8.3567,-8.3558,-8.3596,-8.3591,-8.3602,-8.3377,-8.3339,-8.3601,-8.3601,-8.3601,-8.3601,-8.3601,-8.3601,-8.2411,-8.2574,-8.2596,-8.2791,-8.2842,-8.2978,-8.3033,-8.3106,-8.3168,-8.333,-8.3427,-8.3462,-8.3529,-8.3647,-8.375,-8.3763,-8.3805,-8.3849,-8.3856,-8.3645,-8.3617,-8.359,-8.3554,-8.3858,-8.3858,-8.4072,-8.4074,-8.4075]}]]